Location: Ergnies
(50.0854°N, 2.0375°E)
Time: 06:54:23
(UTC+00:00)

Cosmos 2278 Rocket - Pass Details

Date: 14 January 2026
Orbit: 839 x 846 km, 71.0° (Epoch: 10 February)

Event Time Altitude Azimuth Distance (km) Brightness Sun altitude
Rises 05:10:43 0° 180° (S) 3,379 5.4 -24.1°
Reaches altitude 10° 05:13:18 10° 172° (S) 2,450 4.7 -23.7°
Maximum altitude 05:18:24 37° 107° (ESE) 1,289 3.7 -22.9°
Drops below altitude 10° 05:23:33 10° 42° (NE) 2,469 5.1 -22.1°
Sets 05:26:09 0° 35° (NE) 3,410 5.7 -21.6°
